Stations météo

Publicité
Chassiron, France (7314): Température de l'air & dewpoint: 03.04.2020 12:00:00 - 09.04.2020 12:00:00 (CEST)Chassiron, France (7314): Vitesse du vent & gusts: 03.04.2020 12:00:00 - 09.04.2020 12:00:00 (CEST)Chassiron, France (7314): Direction du vent: 03.04.2020 12:00:00 - 09.04.2020 12:00:00 (CEST)Chassiron, France (7314): reduced air pressure: 03.04.2020 12:00:00 - 09.04.2020 12:00:00 (CEST)Chassiron, France (7314): visibility: 03.04.2020 12:00:00 - 09.04.2020 12:00:00 (CEST)Chassiron, France (7314): Quantités de précipitations: 03.04.2020 12:00:00 - 09.04.2020 12:00:00 (CEST)
Date & Time tt [°C] td [°C] ff [km/h] ff [knt] fx [km/h] fx [knt] dd ppp [hPa] vv [km] rr [mm]
09.04.2020 12:00:00 17,2 12,7 14 7 23 12 E 1022,1 - 0,0
09.04.2020 11:00:00 15,5 12,6 9 5 19 10 E 1022,1 10 0,0
09.04.2020 10:00:00 15,2 13,0 7 4 20 11 E 1021,9 - 0,0
09.04.2020 09:00:00 13,5 12,2 12 6 18 10 E 1021,7 - 0,0
09.04.2020 08:00:00 12,8 11,9 13 7 17 9 E 1021,5 15 0,2
09.04.2020 07:00:00 12,8 11,7 9 5 13 7 ENE 1021,1 - 0,0
09.04.2020 06:00:00 12,9 11,6 9 5 13 7 NE 1021,2 - 0,0
09.04.2020 05:00:00 13,2 11,8 9 5 14 8 NE 1021,4 - 0,0
09.04.2020 04:00:00 13,5 11,7 9 5 13 7 ENE 1021,7 - 0,0
09.04.2020 03:00:00 13,5 11,2 9 5 13 7 ENE 1022,1 - 0,0
09.04.2020 02:00:00 13,4 11,5 9 5 12 6 NE 1022,4 15 0,0
09.04.2020 01:00:00 13,2 11,4 8 5 13 7 NNE 1022,6 - 0,0
09.04.2020 00:00:00 13,4 11,6 4 2 13 7 W 1022,8 - 0,0
08.04.2020 23:00:00 13,4 12,0 10 5 14 8 NNE 1022,6 - 0,0
08.04.2020 22:00:00 13,5 12,1 10 6 14 8 N 1022,5 - 0,0
08.04.2020 21:00:00 13,9 12,1 7 4 10 6 NNW 1022,4 - 0,0
08.04.2020 20:00:00 15,5 13,0 5 3 11 6 NW 1022,4 - 0,0
08.04.2020 19:00:00 16,5 13,6 5 3 11 6 WNW 1022,4 - 0,0
08.04.2020 18:00:00 16,8 13,3 8 4 10 5 W 1022,4 - 0,0
08.04.2020 17:00:00 17,0 13,1 5 3 8 4 W 1022,8 - 0,0
08.04.2020 16:00:00 16,9 13,0 5 3 10 6 WSW 1023,2 - 0,0
08.04.2020 15:00:00 16,9 13,2 4 2 9 5 WNW 1023,5 - 0,0
08.04.2020 14:00:00 15,6 12,0 7 4 13 7 N 1023,7 8 0,0
08.04.2020 13:00:00 16,9 13,4 10 5 20 11 NNE 1023,9 - 0,0
08.04.2020 12:00:00 15,3 12,6 13 7 18 10 S 1024,1 - 0,0
08.04.2020 11:00:00 13,9 12,3 15 8 21 11 S 1024,1 - 0,0
08.04.2020 10:00:00 14,0 12,7 10 5 16 9 SSE 1023,9 - 0,0
08.04.2020 09:00:00 13,3 12,2 13 7 18 10 SSE 1023,9 - 0,0
08.04.2020 08:00:00 12,5 11,1 10 5 21 12 SSE 1023,4 - 0,0
08.04.2020 07:00:00 12,8 11,2 0 0 18 10 N 1022,9 - 0,4
08.04.2020 06:00:00 13,0 10,7 11 6 16 9 SSE 1023,2 - 0,0
08.04.2020 05:00:00 12,6 9,8 4 2 8 4 E 1023,4 13 0,0
08.04.2020 04:00:00 13,1 9,5 6 4 10 5 ENE 1023,6 - 0,0
08.04.2020 03:00:00 12,7 9,5 5 3 6 3 NE 1023,9 - 0,0
08.04.2020 02:00:00 13,4 10,0 5 3 8 4 NE 1024,2 13 0,0
08.04.2020 01:00:00 13,8 10,0 3 2 12 6 ENE 1024,2 - 0,0
08.04.2020 00:00:00 14,1 9,3 7 4 11 6 ENE 1023,9 - 0,0
07.04.2020 23:00:00 13,6 9,8 7 4 9 5 NNE 1024,1 - 0,0
07.04.2020 22:00:00 13,5 9,9 3 2 6 3 N 1024,2 - 0,0
07.04.2020 21:00:00 13,9 9,5 4 2 8 4 N 1023,7 - 0,0
07.04.2020 20:00:00 15,0 10,4 6 3 8 5 N 1023,4 16 0,0
07.04.2020 19:00:00 17,2 11,5 4 2 11 6 ENE 1023,3 - 0,0
07.04.2020 18:00:00 15,8 9,7 9 5 13 7 NE 1023,2 - 0,0
07.04.2020 17:00:00 16,1 10,8 10 5 14 7 NNE 1023,5 - 0,0
07.04.2020 16:00:00 15,0 11,4 11 6 14 7 N 1023,7 - 0,0
07.04.2020 15:00:00 15,6 12,3 7 4 14 7 NNE 1024,3 - 0,0
07.04.2020 14:00:00 15,4 12,9 8 4 14 7 ENE 1024,5 8 0,0
07.04.2020 13:00:00 13,4 12,0 8 4 19 10 ENE 1024,8 - 0,0
07.04.2020 12:00:00 12,7 11,6 11 6 19 10 E 1025,0 - 0,2
07.04.2020 11:00:00 12,3 11,5 9 5 19 11 E 1025,1 7 0,0
07.04.2020 10:00:00 12,2 11,6 10 5 18 10 ENE 1024,9 - 0,0
07.04.2020 09:00:00 11,9 11,4 8 4 14 7 ENE 1024,9 - 0,0
07.04.2020 08:00:00 11,9 11,4 9 5 15 8 E 1024,7 7 0,0
07.04.2020 07:00:00 11,9 11,4 9 5 18 10 ENE 1024,7 - 0,0
07.04.2020 06:00:00 12,0 11,5 10 5 15 8 ENE 1024,7 - 0,0
07.04.2020 05:00:00 12,0 11,5 9 5 16 9 ENE 1024,8 - 0,0
07.04.2020 04:00:00 12,1 11,6 10 5 16 9 ENE 1025,3 - 0,0
07.04.2020 03:00:00 12,1 11,6 7 4 12 7 ENE 1025,5 - 0,2
07.04.2020 02:00:00 12,1 11,6 5 3 13 7 ENE 1025,5 6 0,0
07.04.2020 01:00:00 12,2 11,6 8 4 16 9 E 1025,4 - 0,0
07.04.2020 00:00:00 12,0 11,4 10 5 14 8 E 1025,3 - 0,2
06.04.2020 23:00:00 12,5 11,9 6 4 15 8 E 1025,4 6 0,4
06.04.2020 22:00:00 12,3 11,5 9 5 15 8 E 1025,2 - 0,2
06.04.2020 21:00:00 12,5 11,7 5 3 12 7 E 1024,4 - 0,0
06.04.2020 20:00:00 12,6 11,7 8 4 13 7 NNE 1024,0 - 0,0
06.04.2020 19:00:00 12,6 11,7 11 6 14 7 N 1023,5 - 0,0
06.04.2020 18:00:00 12,6 11,5 8 4 10 6 N 1023,3 - 0,0
06.04.2020 17:00:00 12,8 11,7 8 4 12 7 N 1023,1 7 0,0
06.04.2020 16:00:00 13,3 12,0 8 5 13 7 NNE 1023,0 - 0,0
06.04.2020 15:00:00 13,2 12,3 5 3 10 5 NE 1022,8 - 0,0
06.04.2020 14:00:00 13,0 12,2 5 3 13 7 S 1022,3 7 0,0
06.04.2020 13:00:00 13,0 12,4 11 6 23 13 SSE 1021,7 - 0,0
06.04.2020 12:00:00 12,9 12,4 14 8 27 14 SE 1020,9 - 0,0
06.04.2020 11:00:00 12,3 11,7 15 8 21 11 SSE 1020,6 6 0,2
06.04.2020 10:00:00 11,4 10,6 17 9 22 12 SSE 1019,9 - 0,4
06.04.2020 09:00:00 11,6 10,3 16 9 26 14 S 1018,9 - 0,4
06.04.2020 08:00:00 11,6 9,8 20 11 28 15 S 1017,9 10 0,4
06.04.2020 07:00:00 12,5 8,8 18 10 28 15 S 1017,0 - 0,0
06.04.2020 06:00:00 11,9 10,3 12 6 19 10 SSE 1016,4 - 0,0
06.04.2020 05:00:00 12,8 11,4 12 6 21 11 S 1016,2 12 0,2
06.04.2020 04:00:00 12,9 11,5 11 6 22 12 S 1015,6 - 0,4
06.04.2020 03:00:00 13,4 11,3 14 8 22 12 SSE 1015,1 - 0,0
06.04.2020 02:00:00 14,1 10,9 13 7 37 20 S 1014,7 16 0,0
06.04.2020 01:00:00 14,8 10,2 24 13 42 23 S 1014,1 - 0,0
06.04.2020 00:00:00 17,3 7,3 18 10 30 16 SSE 1013,4 - 0,0
05.04.2020 23:00:00 15,6 7,1 19 11 29 15 SSE 1013,1 18 0,0
05.04.2020 22:00:00 14,8 7,3 16 9 26 14 SE 1012,8 - 0,0
05.04.2020 21:00:00 15,8 7,3 18 10 29 16 SSE 1012,7 - 0,0
05.04.2020 20:00:00 16,1 8,6 21 11 29 15 SSE 1012,7 - 0,0
05.04.2020 19:00:00 16,9 9,1 22 12 38 20 S 1012,6 - 0,0
05.04.2020 18:00:00 17,3 9,7 19 11 34 18 S 1012,5 - 0,0
05.04.2020 17:00:00 18,1 9,4 24 13 49 26 S 1012,7 - 0,0
05.04.2020 16:00:00 20,1 8,1 26 14 45 25 SSE 1013,2 - 0,0
05.04.2020 15:00:00 18,9 9,4 29 16 49 27 S 1013,6 - 0,0
05.04.2020 14:00:00 19,6 7,3 37 20 56 30 SSE 1013,7 21 0,0
05.04.2020 13:00:00 19,7 6,8 35 19 61 33 SSE 1013,9 - 0,0
05.04.2020 12:00:00 18,9 6,7 30 16 50 27 SSE 1014,3 - 0,0
05.04.2020 11:00:00 16,9 8,1 19 11 44 24 SE 1014,4 17 0,0
05.04.2020 10:00:00 13,9 6,5 21 12 38 20 SE 1014,5 - 0,0
05.04.2020 09:00:00 11,4 5,0 23 13 41 22 SE 1014,4 - 0,0
05.04.2020 08:00:00 10,1 4,0 24 13 40 21 SE 1014,3 - 0,0
05.04.2020 07:00:00 10,0 4,6 23 12 34 18 SE 1014,0 - 0,0
05.04.2020 06:00:00 10,8 6,0 16 9 31 17 SE 1013,8 - 0,0
05.04.2020 05:00:00 11,0 6,5 17 9 31 17 SE 1013,8 - 0,0
05.04.2020 04:00:00 11,1 5,2 16 9 33 18 SE 1014,0 - 0,0
05.04.2020 03:00:00 11,5 4,9 20 11 34 18 ESE 1014,5 - 0,0
05.04.2020 02:00:00 11,6 6,1 16 8 26 14 E 1014,7 17 0,0
05.04.2020 01:00:00 12,1 6,2 15 8 27 15 ESE 1014,9 - 0,0
05.04.2020 00:00:00 12,9 6,9 14 8 27 15 E 1014,8 - 0,0
04.04.2020 23:00:00 13,7 6,8 14 8 26 14 E 1015,0 16 0,0
04.04.2020 22:00:00 14,7 7,0 15 8 27 15 E 1015,2 - 0,0
04.04.2020 21:00:00 15,0 7,3 13 7 21 12 E 1015,1 - 0,0
04.04.2020 20:00:00 15,6 8,6 7 4 13 7 E 1014,9 - 0,0
04.04.2020 19:00:00 16,3 6,7 8 4 18 10 ENE 1014,9 - 0,0
04.04.2020 18:00:00 16,7 7,6 7 4 19 10 ENE 1015,3 - 0,0
04.04.2020 17:00:00 16,2 7,4 9 5 17 9 ENE 1015,8 - 0,0
04.04.2020 16:00:00 16,5 8,2 9 5 24 13 ENE 1016,5 - 0,0
04.04.2020 15:00:00 15,6 8,6 10 6 24 13 ENE 1017,2 - 0,0
04.04.2020 14:00:00 14,8 7,6 14 8 25 14 E 1017,4 20 0,0
04.04.2020 13:00:00 13,7 6,8 16 9 31 17 E 1018,1 - 0,0
04.04.2020 12:00:00 13,1 6,4 17 9 31 17 E 1018,6 - 0,0
04.04.2020 11:00:00 11,6 5,9 15 8 31 17 E 1018,6 - 0,0
04.04.2020 10:00:00 10,0 5,2 18 10 32 17 E 1018,4 - 0,0
04.04.2020 09:00:00 9,5 5,3 16 9 31 17 E 1018,8 - 0,0
04.04.2020 08:00:00 8,2 5,8 10 5 23 12 E 1018,6 - 0,0
04.04.2020 07:00:00 7,9 5,4 12 7 20 11 E 1018,7 - 0,0
04.04.2020 06:00:00 8,5 5,8 10 6 19 10 E 1018,7 - 0,0
04.04.2020 05:00:00 9,0 6,4 9 5 19 11 E 1019,1 17 0,0
04.04.2020 04:00:00 9,5 7,3 10 5 20 11 E 1019,4 - 0,0
04.04.2020 03:00:00 9,7 8,0 8 5 17 9 E 1019,6 - 0,0
04.04.2020 02:00:00 10,4 8,7 13 7 19 11 NE 1019,7 17 0,0
04.04.2020 01:00:00 10,3 8,4 14 8 20 11 NNE 1020,1 - 0,0
04.04.2020 00:00:00 10,5 8,3 13 7 21 12 N 1020,1 - 0,0
03.04.2020 23:00:00 10,8 8,7 14 7 21 11 N 1020,2 14 0,0
03.04.2020 22:00:00 10,7 8,5 14 7 21 12 N 1020,2 - 0,0
03.04.2020 21:00:00 10,7 8,5 16 8 24 13 NNW 1019,9 - 0,0
03.04.2020 20:00:00 11,3 8,2 18 10 26 14 NW 1020,0 18 0,0
03.04.2020 19:00:00 11,9 8,7 16 8 22 12 NW 1020,3 - 0,0
03.04.2020 18:00:00 11,8 8,3 16 9 26 14 NW 1020,3 - 0,0
03.04.2020 17:00:00 11,9 8,2 15 8 23 12 WNW 1020,6 18 0,0
03.04.2020 16:00:00 11,4 7,5 13 7 20 11 W 1020,9 - 0,0
03.04.2020 15:00:00 11,4 7,3 11 6 17 9 W 1021,3 - 0,0
03.04.2020 14:00:00 11,8 7,9 9 5 14 8 W 1021,7 12 0,0
03.04.2020 13:00:00 10,9 6,6 9 5 14 8 SW 1021,9 - 0,0
03.04.2020 12:00:00 10,8 6,5 5 3 13 7 NNE 1021,7 - 0,0

tt = Température de l'air
td = dewpoint
ff = Vitesse du vent
fx = gusts
dd = Direction du vent
ppp = reduced air pressure
vv = visibility
rr = Quantités de précipitations

stations d'obs. à proximité